GW6435 Weather Reports


time (UTC)temp
C
wind
direction
speed
KPH
gust
KPH
rain 1hr
cm
rain 24hr
cm
rain mn
cm
humidity
%
barometer
mb
20260508023645 26 63 0.0 1.6 0.00 0.00 0.00 81 1018.9
20260508023143 26 17 0.0 1.6 0.00 0.00 0.00 81 1018.7
20260508022638 26 83 1.6 1.6 0.00 0.00 0.00 80 1019.0
20260508022136 26 107 1.6 1.6 0.00 0.00 0.00 80 1018.8
20260508021631 26 109 1.6 1.6 0.00 0.00 0.00 80 1018.9
20260508021127 26 285 0.0 0.0 0.00 0.00 0.00 80 1018.8
20260508020625 26 292 0.0 1.6 0.00 0.00 0.00 80 1018.9
20260508020123 26 28 1.6 1.6 0.00 0.00 0.00 80 1019.0
20260508015620 26 61 0.0 1.6 0.00 0.00 0.00 80 1018.6
20260508015117 26 86 1.6 3.2 0.00 0.00 0.00 79 1018.9
20260508014613 26 69 3.2 3.2 0.00 0.00 0.00 79 1018.8
20260508014109 26 60 1.6 3.2 0.00 0.00 0.00 79 1018.7
20260508013605 26 62 1.6 3.2 0.00 0.00 0.00 78 1018.8
20260508013103 26 94 1.6 4.8 0.00 0.00 0.00 78 1018.7
20260508012600 26 78 3.2 4.8 0.00 0.00 0.00 78 1018.5
20260508012057 26 115 1.6 3.2 0.00 0.00 0.00 78 1018.7
20260508011556 26 85 1.6 3.2 0.00 0.00 0.00 78 1018.7
20260508011053 26 104 4.8 4.8 0.00 0.00 0.00 78 1018.7
20260508010549 27 76 4.8 4.8 0.00 0.00 0.00 78 1018.6
20260508010047 26 82 3.2 4.8 0.00 0.00 0.00 78 1018.7
20260508005543 27 65 3.2 4.8 0.00 0.00 0.00 77 1018.5
20260508005040 27 102 1.6 4.8 0.00 0.00 0.00 77 1018.3
20260508004536 27 95 3.2 4.8 0.00 0.00 0.00 76 1018.3
20260508004033 27 64 3.2 4.8 0.00 0.00 0.00 77 1018.4
20260508003529 27 92 3.2 6.4 0.00 0.00 0.00 76 1018.3
20260508003027 27 82 4.8 6.4 0.00 0.00 0.00 76 1018.5
20260508002523 27 75 1.6 6.4 0.00 0.00 0.00 76 1018.3
20260508002021 27 89 3.2 9.7 0.00 0.00 0.00 76 1018.3
20260508001516 27 77 9.7 9.7 0.00 0.00 0.00 75 1018.3
20260508001012 27 83 1.6 9.7 0.00 0.00 0.00 75 1018.1
20260508000508 27 90 3.2 4.8 0.00 0.00 0.00 74 1018.1
20260508000006 27 44 4.8 9.7 0.00 0.00 0.00 74 1018.1
20260507235502 27 134 3.2 6.4 0.00 0.00 0.00 74 1018.2
20260507235000 27 94 4.8 9.7 0.00 0.00 0.00 74 1018.2
20260507234456 27 198 1.6 9.7 0.00 0.00 0.00 73 1018.1
20260507233953 28 189 1.6 11.3 0.00 0.00 0.00 73 1018.1
20260507233449 28 108 3.2 6.4 0.00 0.00 0.00 73 1018.0
20260507232948 28 199 3.2 4.8 0.00 0.00 0.00 73 1017.8
20260507232444 28 107 1.6 4.8 0.00 0.00 0.00 73 1017.7
20260507231942 27 102 3.2 4.8 0.00 0.00 0.00 73 1017.6
20260507231437 27 89 3.2 4.8 0.00 0.00 0.00 73 1017.5
20260507230935 27 77 6.4 9.7 0.00 0.00 0.00 73 1017.3
20260507230432 27 64 1.6 4.8 0.00 0.00 0.00 73 1017.1
20260507225932 28 75 1.6 4.8 0.00 0.00 0.00 73 1017.1
20260507225428 28 101 3.2 9.7 0.00 0.00 0.00 73 1017.2
20260507224925 28 92 4.8 6.4 0.00 0.00 0.00 73 1016.9
20260507224421 28 92 6.4 9.7 0.00 0.00 0.00 72 1017.0
20260507223918 28 103 3.2 6.4 0.00 0.00 0.00 72 1017.2
20260507223414 28 75 3.2 4.8 0.00 0.00 0.00 72 1017.1
20260507222911 28 100 4.8 6.4 0.00 0.00 0.00 71 1017.1
20260507222408 28 120 4.8 9.7 0.00 0.00 0.00 71 1017.2
20260507221904 28 71 3.2 11.3 0.00 0.00 0.00 70 1017.1
20260507221401 28 121 6.4 9.7 0.00 0.00 0.00 69 1017.2
20260507220856 28 99 11.3 14.5 0.00 0.00 0.00 70 1017.0
20260507220355 28 98 4.8 9.7 0.00 0.00 0.00 70 1017.1
20260507215851 28 45 8.0 12.9 0.00 0.00 0.00 70 1017.0
20260507215348 28 131 4.8 14.5 0.00 0.00 0.00 69 1016.9
20260507214845 29 70 8.0 12.9 0.00 0.00 0.00 68 1016.7
20260507214343 29 94 4.8 12.9 0.00 0.00 0.00 67 1016.6
20260507213843 29 88 4.8 11.3 0.00 0.00 0.00 68 1016.5
20260507213341 29 77 6.4 11.3 0.00 0.00 0.00 66 1016.6
20260507212837 29 158 8.0 14.5 0.00 0.00 0.00 65 1016.3
20260507212333 30 110 4.8 11.3 0.00 0.00 0.00 64 1016.6
20260507211830 30 93 6.4 9.7 0.00 0.00 0.00 64 1016.4
20260507211327 30 72 6.4 12.9 0.00 0.00 0.00 64 1016.3
20260507210824 30 165 9.7 12.9 0.00 0.00 0.00 64 1016.6
20260507210321 30 104 11.3 14.5 0.00 0.00 0.00 64 1016.4
20260507205817 30 88 12.9 16.1 0.00 0.00 0.00 65 1016.4
20260507205314 30 82 8.0 12.9 0.00 0.00 0.00 64 1016.4
20260507204810 30 132 3.2 12.9 0.00 0.00 0.00 64 1016.4
20260507204308 30 119 6.4 16.1 0.00 0.00 0.00 64 1016.1
20260507203806 30 91 1.6 14.5 0.00 0.00 0.00 62 1016.3
20260507203303 30 56 6.4 11.3 0.00 0.00 0.00 63 1016.5
20260507202759 30 109 9.7 14.5 0.00 0.00 0.00 63 1016.3
20260507202255 30 111 9.7 12.9 0.00 0.00 0.00 62 1016.4
20260507201750 30 121 6.4 14.5 0.00 0.00 0.00 61 1016.2
20260507201247 30 173 11.3 16.1 0.00 0.00 0.00 62 1016.6
20260507200743 31 104 11.3 20.9 0.00 0.00 0.00 60 1016.6
20260507200239 31 126 6.4 17.7 0.00 0.00 0.00 60 1016.5
20260507195735 31 106 16.1 20.9 0.00 0.00 0.00 60 1016.5
20260507195233 31 148 8.0 14.5 0.00 0.00 0.00 60 1016.5
20260507194730 31 111 12.9 24.1 0.00 0.00 0.00 59 1016.4
20260507194226 31 144 11.3 20.9 0.00 0.00 0.00 60 1016.7
20260507193723 31 86 11.3 17.7 0.00 0.00 0.00 59 1016.6
20260507193220 31 199 8.0 16.1 0.00 0.00 0.00 59 1016.8
20260507192716 31 161 14.5 17.7 0.00 0.00 0.00 58 1016.6
20260507192213 31 159 9.7 20.9 0.00 0.00 0.00 61 1016.7
20260507191708 31 135 6.4 16.1 0.00 0.00 0.00 60 1016.7
20260507191206 31 126 16.1 20.9 0.00 0.00 0.00 60 1016.8
20260507190703 31 167 8.0 14.5 0.00 0.00 0.00 61 1016.9
20260507190201 31 115 9.7 14.5 0.00 0.00 0.00 60 1017.0
20260507185659 31 110 8.0 16.1 0.00 0.00 0.00 60 1017.0
20260507185156 31 101 11.3 17.7 0.00 0.00 0.00 59 1017.1
20260507184654 32 118 11.3 17.7 0.00 0.00 0.00 58 1017.0
20260507184151 32 149 8.0 20.9 0.00 0.00 0.00 57 1017.2
20260507183647 32 225 4.8 12.9 0.00 0.00 0.00 56 1016.9
20260507183144 32 101 6.4 16.1 0.00 0.00 0.00 57 1016.9
20260507182641 32 90 9.7 14.5 0.00 0.00 0.00 58 1016.9
20260507182137 32 155 8.0 16.1 0.00 0.00 0.00 58 1016.9
20260507181633 32 135 6.4 17.7 0.00 0.00 0.00 59 1017.0
20260507181130 32 113 12.9 22.5 0.00 0.00 0.00 57 1017.3
20260507180626 31 152 6.4 12.9 0.00 0.00 0.00 56 1017.1
20260507180124 32 156 4.8 11.3 0.00 0.00 0.00 56 1017.4
20260507175619 32 143 4.8 14.5 0.00 0.00 0.00 58 1017.4
20260507175117 32 119 6.4 11.3 0.00 0.00 0.00 59 1017.1
20260507174614 31 149 4.8 17.7 0.00 0.00 0.00 61 1017.5
20260507174112 31 98 6.4 12.9 0.00 0.00 0.00 59 1017.7
20260507173609 32 110 8.0 16.1 0.00 0.00 0.00 56 1017.6
20260507173106 31 89 6.4 17.7 0.00 0.00 0.00 57 1017.9
20260507172602 31 101 9.7 16.1 0.00 0.00 0.00 57 1017.7
20260507172059 32 126 9.7 12.9 0.00 0.00 0.00 58 1018.1
20260507171554 31 93 3.2 14.5 0.00 0.00 0.00 58 1018.1
20260507171052 31 161 8.0 14.5 0.00 0.00 0.00 57 1018.1
20260507170548 31 72 9.7 12.9 0.00 0.00 0.00 61 1018.2
20260507170045 31 131 12.9 16.1 0.00 0.00 0.00 59 1018.4
20260507165541 32 237 6.4 17.7 0.00 0.00 0.00 58 1018.5
20260507165038 31 159 6.4 20.9 0.00 0.00 0.00 57 1018.5
20260507164534 31 173 6.4 14.5 0.00 0.00 0.00 58 1018.5
20260507164032 30 131 9.7 14.5 0.00 0.00 0.00 61 1018.7
20260507163529 31 136 11.3 14.5 0.00 0.00 0.00 60 1018.9
20260507163027 31 124 16.1 22.5 0.00 0.00 0.00 60 1018.8
20260507162526 31 129 9.7 16.1 0.00 0.00 0.00 59 1018.7
20260507162023 31 84 11.3 17.7 0.00 0.00 0.00 61 1018.9
20260507161520 31 96 16.1 20.9 0.00 0.00 0.00 59 1019.0
20260507161017 31 118 9.7 14.5 0.00 0.00 0.00 58 1019.0
20260507160512 31 137 6.4 11.3 0.00 0.00 0.00 62 1019.2
20260507160009 31 57 8.0 12.9 0.00 0.00 0.00 63 1019.0
20260507155504 31 169 8.0 12.9 0.00 0.00 0.00 63 1019.0
20260507155002 30 67 4.8 11.3 0.00 0.00 0.00 63 1019.0
20260507154458 31 170 8.0 17.7 0.00 0.00 0.00 62 1019.2
20260507153955 31 80 8.0 12.9 0.00 0.00 0.00 61 1019.1
20260507153452 31 126 4.8 17.7 0.00 0.00 0.00 61 1019.2
20260507152948 31 152 6.4 12.9 0.00 0.00 0.00 62 1019.3
20260507152444 31 120 8.0 14.5 0.00 0.00 0.00 62 1019.3
20260507151941 30 179 6.4 14.5 0.00 0.00 0.00 64 1019.4
20260507151437 31 135 6.4 17.7 0.00 0.00 0.00 61 1019.3
20260507150934 31 144 6.4 11.3 0.00 0.00 0.00 63 1019.3
20260507150431 31 182 8.0 14.5 0.00 0.00 0.00 60 1019.4
20260507145927 31 138 9.7 14.5 0.00 0.00 0.00 61 1019.3
20260507145423 31 156 6.4 14.5 0.00 0.00 0.00 61 1019.4
20260507144920 31 257 4.8 11.3 0.00 0.00 0.00 63 1019.6
20260507144417 31 102 9.7 16.1 0.00 0.00 0.00 63 1019.5
20260507143914 30 113 9.7 17.7 0.00 0.00 0.00 64 1019.5
20260507143412 30 107 4.8 12.9 0.00 0.00 0.00 65 1019.3
20260507142908 30 101 8.0 17.7 0.00 0.00 0.00 65 1019.5
20260507142404 30 66 12.9 20.9 0.00 0.00 0.00 63 1019.7
20260507141901 30 60 6.4 17.7 0.00 0.00 0.00 64 1019.5
20260507141357 30 121 6.4 12.9 0.00 0.00 0.00 64 1019.6
20260507140854 30 120 9.7 17.7 0.00 0.00 0.00 65 1019.6
20260507140351 31 96 9.7 14.5 0.00 0.00 0.00 66 1019.6
20260507135849 30 133 3.2 12.9 0.00 0.00 0.00 66 1019.6
20260507135345 30 80 6.4 14.5 0.00 0.00 0.00 66 1019.7
20260507134843 30 116 6.4 12.9 0.00 0.00 0.00 67 1019.6
20260507134339 29 95 6.4 11.3 0.00 0.00 0.00 69 1019.6
20260507133835 29 95 8.0 11.3 0.00 0.00 0.00 69 1019.7
20260507133330 30 59 6.4 11.3 0.00 0.00 0.00 67 1019.5
20260507132829 29 141 6.4 6.4 0.00 0.00 0.00 71 1019.3
20260507132325 29 72 6.4 11.3 0.00 0.00 0.00 69 1019.5
20260507131823 29 96 6.4 11.3 0.00 0.00 0.00 70 1019.5
20260507131319 28 157 4.8 6.4 0.00 0.00 0.00 73 1019.5
20260507130816 28 124 6.4 12.9 0.00 0.00 0.00 72 1019.4
20260507130314 28 95 6.4 11.3 0.00 0.00 0.00 75 1019.6
20260507125813 28 127 6.4 11.3 0.00 0.00 0.00 74 1019.3
20260507125309 28 179 4.8 11.3 0.00 0.00 0.00 75 1019.4
20260507124807 28 136 3.2 12.9 0.00 0.00 0.00 75 1019.3
20260507124303 28 115 6.4 9.7 0.00 0.00 0.00 75 1019.1
20260507123801 28 68 8.0 12.9 0.00 0.00 0.00 73 1019.2
20260507123258 28 79 6.4 6.4 0.00 0.00 0.00 75 1019.2
20260507122754 28 91 8.0 11.3 0.00 0.00 0.00 77 1019.2
20260507122249 28 86 9.7 14.5 0.00 0.00 0.00 77 1019.2
20260507121746 28 76 3.2 9.7 0.00 0.00 0.00 79 1019.0
20260507121242 27 49 3.2 4.8 0.00 0.00 0.00 80 1018.9
20260507120738 27 88 1.6 3.2 0.00 0.00 0.00 80 1019.0
20260507120235 27 93 1.6 3.2 0.00 0.00 0.00 80 1019.0
20260507115731 27 1 0.0 3.2 0.00 0.00 0.00 79 1018.8
20260507115227 28 83 1.6 4.8 0.00 0.00 0.00 78 1018.8
20260507114723 28 75 3.2 3.2 0.00 0.00 0.00 78 1018.7
20260507114220 27 238 1.6 1.6 0.00 0.00 0.00 80 1018.7
20260507113718 27 105 3.2 3.2 0.00 0.00 0.00 81 1018.6
20260507113214 27 214 3.2 3.2 0.00 0.00 0.00 80 1018.7
20260507112712 26 70 0.0 0.0 0.00 0.00 0.00 83 1018.7
20260507112209 26 93 1.6 1.6 0.00 0.00 0.00 85 1018.5
20260507111706 26 70 0.0 1.6 0.00 0.00 0.00 86 1018.5
20260507111203 25 42 1.6 1.6 0.00 0.00 0.00 87 1018.6
20260507110658 25 73 1.6 1.6 0.00 0.00 0.00 87 1018.6
20260507110156 25 76 3.2 3.2 0.00 0.00 0.00 87 1018.6
20260507105653 25 45 0.0 1.6 0.00 0.00 0.00 87 1018.5
20260507105148 25 78 1.6 3.2 0.00 0.00 0.00 86 1018.5
20260507104646 25 184 0.0 1.6 0.00 0.00 0.00 87 1018.4
20260507104142 25 199 0.0 1.6 0.00 0.00 0.00 87 1018.4
20260507103638 25 237 1.6 1.6 0.00 0.00 0.00 88 1018.5
20260507103135 25 101 1.6 1.6 0.00 0.00 0.00 89 1018.4
20260507102632 25 164 0.0 0.0 0.00 0.00 0.00 91 1018.4
20260507102128 25 191 0.0 1.6 0.00 0.00 0.00 92 1018.3
20260507101624 24 260 0.0 0.0 0.00 0.00 0.00 92 1018.2
20260507101120 24 66 0.0 0.0 0.00 0.00 0.00 91 1018.2
20260507100618 24 58 0.0 0.0 0.00 0.00 0.00 91 1018.0
20260507100115 24 90 0.0 1.6 0.00 0.00 0.00 91 1018.1
20260507095613 24 92 1.6 1.6 0.00 0.00 0.00 91 1018.2
20260507095109 24 88 0.0 1.6 0.00 0.00 0.00 91 1018.1
20260507094605 24 83 1.6 3.2 0.00 0.00 0.00 91 1018.3
20260507094103 24 103 1.6 3.2 0.00 0.00 0.00 91 1018.2
20260507093600 24 57 0.0 1.6 0.00 0.00 0.00 91 1018.0
20260507093059 24 92 1.6 1.6 0.00 0.00 0.00 91 1017.9
20260507092555 24 154 1.6 1.6 0.00 0.00 0.00 91 1018.1
20260507092052 24 101 6.4 6.4 0.00 0.00 0.00 90 1018.1
20260507091548 24 264 0.0 1.6 0.00 0.00 0.00 90 1018.0
20260507091044 24 125 0.0 1.6 0.00 0.00 0.00 91 1018.2
20260507090540 24 94 1.6 1.6 0.00 0.00 0.00 91 1018.0
20260507090038 24 53 0.0 0.0 0.00 0.00 0.00 90 1018.1
20260507085535 24 64 1.6 3.2 0.00 0.00 0.00 90 1018.1
20260507085031 24 330 1.6 1.6 0.00 0.00 0.00 90 1018.3
20260507084528 25 296 0.0 1.6 0.00 0.00 0.00 90 1018.0
20260507084025 25 271 0.0 0.0 0.00 0.00 0.00 90 1018.2
20260507083521 25 273 1.6 1.6 0.00 0.00 0.00 90 1018.1
20260507083019 25 74 0.0 1.6 0.00 0.00 0.00 90 1018.2
20260507082514 25 70 1.6 3.2 0.00 0.00 0.00 89 1018.2
20260507082010 25 92 0.0 1.6 0.00 0.00 0.00 90 1018.2
20260507081507 25 31 0.0 1.6 0.00 0.00 0.00 90 1017.7
20260507081004 25 90 1.6 1.6 0.00 0.00 0.00 90 1017.9
20260507080459 25 309 0.0 0.0 0.00 0.00 0.00 90 1018.0
20260507075955 25 310 0.0 0.0 0.00 0.00 0.00 90 1017.9
20260507075452 25 351 0.0 0.0 0.00 0.00 0.00 90 1017.9
20260507074948 25 74 0.0 0.0 0.00 0.00 0.00 90 1017.7
20260507074445 25 321 0.0 1.6 0.00 0.00 0.00 90 1018.0
20260507073943 25 318 0.0 1.6 0.00 0.00 0.00 90 1018.0
20260507073439 25 304 0.0 0.0 0.00 0.00 0.00 89 1017.9
20260507072936 25 325 0.0 0.0 0.00 0.00 0.00 90 1018.1
20260507072434 25 331 0.0 1.6 0.00 0.00 0.00 89 1018.1
20260507071931 25 313 1.6 1.6 0.00 0.00 0.00 89 1018.1
20260507071428 25 68 0.0 0.0 0.00 0.00 0.00 90 1018.3
20260507070924 25 43 0.0 1.6 0.00 0.00 0.00 89 1018.2
20260507070422 25 322 0.0 1.6 0.00 0.00 0.00 90 1018.3
20260507065918 25 13 0.0 0.0 0.00 0.00 0.00 90 1018.4
20260507065415 25 53 0.0 1.6 0.00 0.00 0.00 90 1018.3
20260507064913 25 322 0.0 0.0 0.00 0.00 0.00 90 1018.3
20260507064411 25 27 0.0 0.0 0.00 0.00 0.00 90 1018.5
20260507063908 25 327 0.0 1.6 0.00 0.00 0.00 90 1018.5
20260507063405 25 332 0.0 1.6 0.00 0.00 0.00 89 1018.6
20260507062902 25 328 0.0 1.6 0.00 0.00 0.00 89 1018.3
20260507062359 25 324 0.0 1.6 0.00 0.00 0.00 89 1018.6
20260507061856 25 272 0.0 1.6 0.00 0.00 0.00 89 1018.8
20260507061354 25 46 1.6 1.6 0.00 0.00 0.00 88 1018.7
20260507060853 25 62 1.6 1.6 0.00 0.00 0.00 88 1018.8
20260507060349 25 126 3.2 3.2 0.00 0.00 0.00 87 1019.0
20260507055846 25 133 0.0 1.6 0.00 0.00 0.00 88 1019.0
20260507055341 25 218 0.0 0.0 0.00 0.00 0.00 88 1019.0
20260507054838 25 219 1.6 1.6 0.00 0.00 0.00 88 1019.0
20260507054334 25 287 1.6 3.2 0.00 0.00 0.00 88 1019.1
20260507053831 25 246 0.0 1.6 0.00 0.00 0.00 87 1019.0
20260507053329 25 245 1.6 1.6 0.00 0.00 0.00 87 1019.3
20260507052828 25 248 1.6 1.6 0.00 0.00 0.00 87 1019.1
20260507052324 25 211 1.6 3.2 0.00 0.00 0.00 87 1019.4
20260507051822 25 250 0.0 1.6 0.00 0.00 0.00 88 1019.3
20260507051319 25 201 1.6 1.6 0.00 0.00 0.00 88 1019.6
20260507050816 25 264 0.0 1.6 0.00 0.00 0.00 88 1019.7
20260507050312 25 221 1.6 3.2 0.00 0.00 0.00 88 1019.7
20260507045809 26 234 1.6 1.6 0.00 0.00 0.00 88 1019.8
20260507045307 26 142 1.6 1.6 0.00 0.00 0.00 88 1019.8
20260507044803 25 114 1.6 1.6 0.00 0.00 0.00 88 1020.1
20260507044259 25 204 0.0 1.6 0.00 0.00 0.00 88 1020.1
20260507043755 26 204 0.0 1.6 0.00 0.00 0.00 88 1020.1
20260507043252 26 245 0.0 1.6 0.00 0.00 0.00 88 1020.3
20260507042748 26 177 0.0 1.6 0.00 0.00 0.00 87 1020.2
20260507042243 26 139 0.0 0.0 0.00 0.00 0.00 87 1020.2
20260507041742 26 107 0.0 1.6 0.00 0.00 0.00 87 1020.5
20260507041238 26 119 1.6 4.8 0.00 0.00 0.00 87 1020.5
20260507040735 26 104 3.2 3.2 0.00 0.00 0.00 87 1020.3
20260507040231 26 259 0.0 1.6 0.18 0.00 0.00 87 1020.5
20260507035727 26 229 0.0 1.6 0.30 0.08 0.08 87 1020.4
20260507035222 26 117 1.6 3.2 0.30 0.05 0.05 86 1020.4
20260507034720 26 62 0.0 1.6 0.00 0.00 0.00 83 1020.7
20260507034217 26 80 1.6 1.6 0.00 0.00 0.00 81 1020.5
20260507033716 26 80 0.0 1.6 0.00 0.00 0.00 80 1020.5
20260507033213 26 356 0.0 1.6 0.00 0.00 0.00 80 1020.4
20260507032710 26 268 0.0 0.0 0.00 0.00 0.00 80 1020.4
20260507032206 26 268 0.0 1.6 0.00 0.00 0.00 80 1020.3
20260507031703 26 285 1.6 1.6 0.00 0.00 0.00 79 1020.7
20260507031159 26 249 0.0 1.6 0.00 0.00 0.00 80 1020.5
20260507030656 26 258 0.0 1.6 0.00 0.00 0.00 79 1020.8
20260507030154 26 293 0.0 1.6 0.00 0.00 0.00 79 1020.7
20260507025651 26 239 0.0 1.6 0.00 0.00 0.00 80 1020.7
20260507025148 26 227 3.2 3.2 0.00 0.00 0.00 79 1020.7
20260507024646 26 237 1.6 3.2 0.00 0.00 0.00 79 1020.7
20260507024143 26 225 1.6 3.2 0.00 0.00 0.00 78 1020.5